Weather History for Flag Island, MN

Change the Weather History Date:

Saturday, May 4, 2013

  Actual Average Record
Temperature  
Mean Temperature 40 °F -  
Max Temperature 46 °F 50 °F 66 °F (1999)
Min Temperature 33 °F 34 °F 28 °F (2014)
Degree Days  
Heating Degree Days 26    
Moisture  
Dew Point 28 °F    
Average Humidity 69    
Maximum Humidity 93    
Minimum Humidity 53    
Precipitation  
Precipitation 0.00 in - - ()
Sea Level Pressure  
Sea Level Pressure 30.30 in    
Wind  
Wind Speed 5 mph (NNE)    
Max Wind Speed 15 mph    
Max Gust Speed 18 mph    
Visibility 10 miles    
Events      
Averages and records for this station are not official NWS values.
T = Trace of Precipitation, MM = Missing Value Source: NWS Daily Summary

Daily Weather History Graph

Daily Weather History Graph

Search for Another Location

Airport:

Trip Planner

Search our weather history database for the weather conditions in past years. The results will help you decide how hot, cold, wet, or windy it might be!

Date:

Astronomy

May. 04, 2013 Rise Set
Actual Time 5:52 AM CDT 8:41 PM CDT
Civil Twilight 5:15 AM CDT 9:18 PM CDT
Nautical Twilight 4:29 AM CDT 10:05 PM CDT
Astronomical Twilight 3:32 AM CDT 11:02 PM CDT
Moon 3:19 AM CDT (5/4) 3:13 PM CDT (5/4)
Length of Visible Light 16h 02m
Length of Day
14h 49m
Waning Crescent, 27% of the Moon is Illuminated
May 4
Waning Crescent
May 9
New
May 17
First Quarter
May 24
Full
May 31
Last Quarter

Hourly Weather History & Observations

Time (CDT) Temp. Windchill Dew Point Humidity Pressure Visibility Wind Dir Wind Speed Gust Speed Precip Events Conditions
12:14 AM 33.8 °F - 26.6 °F 75% 30.31 in 10.0 mi Calm Calm - N/A   Clear
12:34 AM 33.8 °F - 26.6 °F 75% 30.30 in 10.0 mi Calm Calm - N/A   Clear
12:53 AM 33.8 °F - 26.6 °F 75% 30.30 in 10.0 mi Calm Calm - N/A   Clear
1:13 AM 33.8 °F 30.8 °F 24.8 °F 70% 30.30 in 10.0 mi North 3.5 mph - N/A   Clear
1:34 AM 33.8 °F 30.8 °F 24.8 °F 70% 30.30 in 10.0 mi North 3.5 mph - N/A   Clear
1:53 AM 33.8 °F 30.8 °F 24.8 °F 70% 30.30 in 10.0 mi North 3.5 mph - N/A   Clear
2:13 AM 33.8 °F 29.6 °F 24.8 °F 70% 30.29 in 10.0 mi North 4.6 mph - N/A   Mostly Cloudy
2:33 AM 35.6 °F 32.8 °F 24.8 °F 65% 30.30 in 10.0 mi North 3.5 mph - N/A   Overcast
2:53 AM 35.6 °F 30.7 °F 24.8 °F 65% 30.29 in 10.0 mi North 5.8 mph - N/A   Overcast
3:14 AM 33.8 °F 29.6 °F 24.8 °F 70% 30.29 in 10.0 mi NNE 4.6 mph - N/A   Overcast
3:33 AM 33.8 °F 28.6 °F 26.6 °F 75% 30.29 in 10.0 mi North 5.8 mph - N/A   Overcast
3:53 AM 33.8 °F 29.6 °F 24.8 °F 70% 30.30 in 10.0 mi North 4.6 mph - N/A   Mostly Cloudy
4:14 AM 33.8 °F 29.6 °F 26.6 °F 75% 30.30 in 10.0 mi North 4.6 mph - N/A   Overcast
4:33 AM 33.8 °F 28.6 °F 24.8 °F 70% 30.30 in 10.0 mi North 5.8 mph - N/A   Overcast
4:53 AM 33.8 °F 27.0 °F 24.8 °F 70% 30.30 in 10.0 mi NNE 8.1 mph - N/A   Overcast
5:14 AM 33.8 °F 27.7 °F 24.8 °F 70% 30.30 in 10.0 mi North 6.9 mph - N/A   Mostly Cloudy
5:33 AM 33.8 °F 28.6 °F 26.6 °F 75% 30.30 in 10.0 mi NNE 5.8 mph - N/A   Clear
5:53 AM 33.8 °F 28.6 °F 26.6 °F 75% 30.31 in 10.0 mi North 5.8 mph - N/A   Mostly Cloudy
6:14 AM 33.8 °F 27.7 °F 26.6 °F 75% 30.31 in 10.0 mi North 6.9 mph - N/A   Overcast
6:33 AM 33.8 °F 28.6 °F 26.6 °F 75% 30.31 in 10.0 mi North 5.8 mph - N/A   Scattered Clouds
6:53 AM 33.8 °F 27.7 °F 26.6 °F 75% 30.31 in 10.0 mi North 6.9 mph - N/A   Mostly Cloudy
7:14 AM 33.8 °F 28.6 °F 26.6 °F 75% 30.32 in 10.0 mi North 5.8 mph - N/A   Scattered Clouds
7:33 AM 33.8 °F 29.6 °F 26.6 °F 75% 30.32 in 10.0 mi North 4.6 mph - N/A   Clear
7:53 AM 33.8 °F 27.7 °F 26.6 °F 75% 30.31 in 10.0 mi NNE 6.9 mph - N/A   Clear
8:14 AM 33.8 °F 27.0 °F 26.6 °F 75% 30.32 in 10.0 mi NNE 8.1 mph - N/A   Clear
8:33 AM 35.6 °F 28.6 °F 26.6 °F 70% 30.32 in 10.0 mi NNE 9.2 mph - N/A   Clear
8:53 AM 35.6 °F 28.6 °F 26.6 °F 70% 30.32 in 10.0 mi North 9.2 mph - N/A   Clear
9:14 AM 35.6 °F 28.0 °F 26.6 °F 70% 30.33 in 10.0 mi North 10.4 mph - N/A   Scattered Clouds
9:33 AM 35.6 °F 28.0 °F 26.6 °F 70% 30.33 in 10.0 mi North 10.4 mph - N/A   Mostly Cloudy
9:53 AM 37.4 °F 29.8 °F 26.6 °F 65% 30.32 in 10.0 mi NNE 11.5 mph - N/A   Overcast
10:14 AM 37.4 °F 28.9 °F 24.8 °F 60% 30.32 in 10.0 mi NNE 13.8 mph - N/A   Overcast
10:33 AM 37.4 °F 28.5 °F 24.8 °F 60% 30.32 in 10.0 mi NNE 15.0 mph - N/A   Overcast
10:53 AM 37.4 °F 28.5 °F 24.8 °F 60% 30.32 in 10.0 mi NNE 15.0 mph 18.4 mph N/A   Scattered Clouds
11:14 AM 37.4 °F 29.3 °F 24.8 °F 60% 30.32 in 10.0 mi NNE 12.7 mph - N/A   Clear
11:33 AM 37.4 °F 29.3 °F 26.6 °F 65% 30.32 in 10.0 mi NNE 12.7 mph - N/A   Clear
11:53 AM 39.2 °F 32.0 °F 26.6 °F 61% 30.32 in 10.0 mi NNE 11.5 mph - N/A   Scattered Clouds
12:14 PM 39.2 °F 31.6 °F 26.6 °F 61% 30.32 in 10.0 mi NNE 12.7 mph - N/A   Scattered Clouds
12:38 PM 41.0 °F 34.3 °F 24.8 °F 53% 30.32 in 10.0 mi NE 11.5 mph - N/A   Mostly Cloudy
12:53 PM 41.0 °F 33.9 °F 24.8 °F 53% 30.32 in 10.0 mi NE 12.7 mph - N/A   Overcast
1:14 PM 41.0 °F 33.9 °F 26.6 °F 57% 30.32 in 10.0 mi NNE 12.7 mph 17.3 mph N/A   Overcast
1:33 PM 42.8 °F 36.6 °F 26.6 °F 53% 30.32 in 10.0 mi NNE 11.5 mph - N/A   Overcast
1:54 PM 42.8 °F 36.2 °F 26.6 °F 53% 30.31 in 10.0 mi NE 12.7 mph - N/A   Overcast
2:13 PM 42.8 °F 37.0 °F 26.6 °F 53% 30.31 in 10.0 mi ENE 10.4 mph 16.1 mph N/A   Overcast
2:34 PM 42.8 °F 37.0 °F 26.6 °F 53% 30.31 in 10.0 mi ENE 10.4 mph - N/A   Overcast
2:53 PM 42.8 °F 37.0 °F 26.6 °F 53% 30.30 in 10.0 mi ENE 10.4 mph - N/A   Overcast
3:13 PM 42.8 °F 38.0 °F 26.6 °F 53% 30.30 in 10.0 mi NE 8.1 mph - N/A   Overcast
3:34 PM 42.8 °F 37.5 °F 26.6 °F 53% 30.30 in 10.0 mi NE 9.2 mph - N/A   Overcast
3:54 PM 42.8 °F 37.5 °F 28.4 °F 57% 30.29 in 10.0 mi NNE 9.2 mph - N/A   Overcast
4:13 PM 42.8 °F 38.0 °F 28.4 °F 57% 30.29 in 10.0 mi NNE 8.1 mph - N/A   Overcast
4:34 PM 44.6 °F 38.8 °F 28.4 °F 53% 30.29 in 10.0 mi NE 11.5 mph - N/A   Overcast
4:53 PM 42.8 °F 38.6 °F 30.2 °F 61% 30.29 in 10.0 mi NNE 6.9 mph - N/A   Mostly Cloudy
5:14 PM 44.6 °F 39.2 °F 30.2 °F 57% 30.29 in 10.0 mi NE 10.4 mph - N/A   Mostly Cloudy
5:33 PM 44.6 °F 38.8 °F 30.2 °F 57% 30.29 in 10.0 mi ENE 11.5 mph - N/A   Overcast
5:54 PM 46.4 °F 40.4 °F 30.2 °F 53% 30.28 in 10.0 mi NE 13.8 mph - N/A   Overcast
6:13 PM 44.6 °F 39.7 °F 30.2 °F 57% 30.28 in 10.0 mi ENE 9.2 mph - N/A   Mostly Cloudy
6:34 PM 39.2 °F 35.9 °F 32.0 °F 75% 30.28 in 10.0 mi SSE 4.6 mph - N/A   Overcast
6:53 PM 37.4 °F 34.9 °F 30.2 °F 75% 30.29 in 10.0 mi South 3.5 mph - N/A   Mostly Cloudy
7:13 PM 37.4 °F 32.8 °F 30.2 °F 75% 30.29 in 10.0 mi South 5.8 mph - N/A   Scattered Clouds
7:34 PM 35.6 °F 32.8 °F 32.0 °F 87% 30.29 in 10.0 mi South 3.5 mph - N/A   Scattered Clouds
7:53 PM 37.4 °F - 32.0 °F 81% 30.29 in 10.0 mi Calm Calm - N/A   Mostly Cloudy
8:13 PM 37.4 °F - 32.0 °F 81% 30.29 in 10.0 mi Calm Calm - N/A   Scattered Clouds
8:34 PM 37.4 °F - 32.0 °F 81% 30.29 in 10.0 mi Calm Calm - N/A   Clear
8:53 PM 37.4 °F - 32.0 °F 81% 30.29 in 10.0 mi Calm Calm - N/A   Clear
9:13 PM 37.4 °F - 32.0 °F 81% 30.29 in 10.0 mi Calm Calm - N/A   Clear
9:34 PM 37.4 °F - 32.0 °F 81% 30.29 in 10.0 mi Calm Calm - N/A   Clear
9:53 PM 37.4 °F - 32.0 °F 81% 30.30 in 10.0 mi Calm Calm - N/A   Clear
10:13 PM 35.6 °F - 32.0 °F 87% 30.30 in 10.0 mi Calm Calm - N/A   Clear
10:34 PM 37.4 °F - 32.0 °F 81% 30.30 in 10.0 mi Calm Calm - N/A   Scattered Clouds
10:53 PM 37.4 °F - 32.0 °F 81% 30.30 in 10.0 mi Calm Calm - N/A   Scattered Clouds
11:13 PM 39.2 °F - 32.0 °F 75% 30.29 in 10.0 mi Calm Calm - N/A   Clear
11:34 PM 37.4 °F - 33.8 °F 87% 30.29 in 10.0 mi Calm Calm - N/A   Mostly Cloudy
11:53 PM 35.6 °F - 33.8 °F 93% 30.29 in 10.0 mi Calm Calm - N/A   Mostly Cloudy